TITAN 3C TRANSTAGE DEB, 39299

Orbit data source: Space-Track

TITAN 3C TRANSTAGE DEB, 39299 is space debris in GEO originally from a launch on Thu, 26 Sep 1968 UTC launched from the Air Force Eastern Test Range (AFETR). Debris objects in space refer to the collection of defunct objects orbiting the Earth. Examples of debris include non-operational satellites, rocket bodies, and fragments generated from explosions, collisions, or faulty payload assembly.

Not visible in the next 10 days
Identifier
39299, 1968-081AK
Orbit
GEO
Country
Flag of USUS
Related business
Manufacturer
Unknown
Mission
Spacecraft
Bus & Motor
Unknown
Mass
Unknown
Launch date (UTC)
1968-09-26 (57 years ago)
Launch vehicle
Unknown
Launch site
Air Force Eastern Test Range (AFETR)
Object type
Payload
Rocket body
Debris
Shape & HBR
Unknown shape, 1.1 m
Radar Cross Section
RCS unknown

Expand to show TLE details & history
Last TLE update: 16 hours ago

TLE from 16 hours ago
0 TITAN 3C TRANSTAGE DEB
1 39299U 68081AK  26062.01294947 -.00000042  00000-0  00000+0 0  9993
2 39299   1.4235  19.3163 0162165  23.5706 181.5108  1.00432630 66102
Epoch: 2026-03-03T00:18Z
TLE epoch observation values (Epoch: 2026-03-03T00:18:38.834Z)
Latitude
-0.57792°
Longitude
58.90833°
Altitude
36,421.639 km
Speed
3.027 km/s
True Right ascension
14h 57m 28s
True Declination
0° 34' 38"
Sunlit
Object was in daylight at epoch
Visualization orbit readout
Latitude
Unknown
Longitude
Unknown
Altitude
Unknown
Speed
Unknown
Apparent Right ascension
Unknown
Apparent Declination
Unknown
Sunlit
N/A
Visualization observer readout
Local Sidereal Time
20:06:13
Azimuth
Unknown
Elevation
Unknown
Doppler factor
Unknown
Orbital elements
Apogee altitude
36,425.687 km
Perigee altitude
35,059.584 km
Semi-major axis
42,120.772 km
Eccentricity
0.01622
Inclination
1.4235°
RAAN
19.3163°
Arg. of periapsis
23.5706°
True anomaly
181.46278°
Mean anomaly
181.5108°
Eccentric anomaly
181.48669°
Mean motion
0.25107 °/min
Orbital period
1,433.85 mins
BSTAR
0
Loading maneuver chart data...
Computing Atmospheric mass density...

Documentation

Showing up to 5 results
|